Wetterdaten: aktuell Freitag, 19.07.2019 03:50
Datum Zeit Temp. I. Temp. A. Feuchte A. Luftdruck Regen Wind Richtung Richtung Sonnenschein Taupunkt Windchill Windben
19.07.2019 03:50 23,1 C 16,9 C 63 % 1011,6 hPa 0,0 l/m 0,3 km/h (0 Bft) O 90 0 min 9,8 C 16,9 C 0,0 km/h (0 Bft)
19.07.2019 03:40 23,1 C 17,0 C 62 % 1011,8 hPa 0,0 l/m 0,5 km/h (0 Bft) S 180 0 min 9,7 C 17,0 C 0,0 km/h (0 Bft)
19.07.2019 03:30 23,2 C 17,2 C 62 % 1011,8 hPa 0,0 l/m 1,1 km/h (1 Bft) W 270 0 min 9,9 C 17,2 C 0,0 km/h (0 Bft)
19.07.2019 03:20 23,2 C 17,1 C 62 % 1011,8 hPa 0,0 l/m 1,1 km/h (1 Bft) W 270 0 min 9,8 C 17,1 C 2,1 km/h (1 Bft)
19.07.2019 03:10 23,2 C 17,2 C 63 % 1011,8 hPa 0,0 l/m 1,8 km/h (1 Bft) W-SW 247 0 min 10,1 C 17,2 C 2,4 km/h (1 Bft)
19.07.2019 03:00 23,2 C 17,7 C 61 % 1011,7 hPa 0,0 l/m 1,4 km/h (1 Bft) N-NW 337 0 min 10,1 C 17,7 C 0,0 km/h (0 Bft)
19.07.2019 02:50 23,2 C 19,0 C 58 % 1011,7 hPa 0,0 l/m 3,2 km/h (1 Bft) W 270 0 min 10,5 C 19,0 C 3,4 km/h (1 Bft)
19.07.2019 02:40 23,2 C 18,7 C 59 % 1011,5 hPa 0,0 l/m 3,5 km/h (1 Bft) S-SO 157 0 min 10,5 C 18,7 C 5,8 km/h (2 Bft)
19.07.2019 02:30 23,2 C 18,5 C 62 % 1011,5 hPa 0,0 l/m 3,4 km/h (1 Bft) W-NW 292 0 min 11,1 C 18,5 C 9,3 km/h (2 Bft)
19.07.2019 02:20 23,2 C 17,4 C 68 % 1011,7 hPa 0,0 l/m 2,1 km/h (1 Bft) S-SO 157 0 min 11,4 C 17,4 C 7,9 km/h (2 Bft)
19.07.2019 02:10 23,2 C 16,3 C 73 % 1011,7 hPa 0,0 l/m 1,0 km/h (0 Bft) N-NO 22 0 min 11,4 C 16,3 C 0,0 km/h (0 Bft)
19.07.2019 02:00 23,2 C 16,2 C 74 % 1011,8 hPa 0,0 l/m 0,3 km/h (0 Bft) W 270 0 min 11,6 C 16,2 C 1,6 km/h (1 Bft)
19.07.2019 01:50 23,2 C 15,9 C 75 % 1011,8 hPa 0,0 l/m 0,2 km/h (0 Bft) W-SW 247 0 min 11,5 C 15,9 C 0,0 km/h (0 Bft)
19.07.2019 01:40 23,2 C 15,9 C 75 % 1011,8 hPa 0,0 l/m 0,2 km/h (0 Bft) N-NW 337 0 min 11,5 C 15,9 C 0,0 km/h (0 Bft)
19.07.2019 01:30 23,2 C 15,6 C 75 % 1011,8 hPa 0,0 l/m 0,2 km/h (0 Bft) O-NO 67 0 min 11,2 C 15,6 C 0,0 km/h (0 Bft)
19.07.2019 01:20 23,3 C 15,5 C 75 % 1011,9 hPa 0,0 l/m 0,0 km/h (0 Bft) S-SO 157 0 min 11,1 C 15,5 C 0,0 km/h (0 Bft)
19.07.2019 01:10 23,3 C 15,7 C 76 % 1011,9 hPa 0,0 l/m 0,0 km/h (0 Bft) W-SW 247 0 min 11,5 C 15,7 C 0,0 km/h (0 Bft)
19.07.2019 01:00 23,3 C 16,0 C 76 % 1011,9 hPa 0,0 l/m 2,1 km/h (1 Bft) W-SW 247 0 min 11,8 C 16,0 C 5,5 km/h (1 Bft)
19.07.2019 00:50 23,2 C 15,2 C 75 % 1011,9 hPa 0,0 l/m 0,3 km/h (0 Bft) W-SW 247 0 min 10,8 C 15,2 C 2,6 km/h (1 Bft)
19.07.2019 00:40 23,2 C 15,0 C 73 % 1011,8 hPa 0,0 l/m 0,0 km/h (0 Bft) NW 315 0 min 10,2 C 15,0 C 0,0 km/h (0 Bft)
19.07.2019 00:30 23,4 C 15,0 C 73 % 1011,8 hPa 0,0 l/m 0,0 km/h (0 Bft) W 270 0 min 10,2 C 15,0 C 0,0 km/h (0 Bft)
19.07.2019 00:20 23,4 C 15,0 C 72 % 1011,8 hPa 0,0 l/m 0,0 km/h (0 Bft) W 270 0 min 10,0 C 15,0 C 0,0 km/h (0 Bft)
19.07.2019 00:10 23,4 C 15,2 C 72 % 1011,8 hPa 0,0 l/m 0,0 km/h (0 Bft) W 270 0 min 10,2 C 15,2 C 0,0 km/h (0 Bft)
19.07.2019 00:00 23,4 C 15,4 C 71 % 1011,9 hPa 0,0 l/m 0,0 km/h (0 Bft) W 270 0 min 10,2 C 15,4 C 0,0 km/h (0 Bft)
18.07.2019 23:50 23,4 C 15,8 C 70 % 1011,9 hPa 0,0 l/m 0,0 km/h (0 Bft) W 270 0 min 10,3 C 15,8 C 0,0 km/h (0 Bft)
18.07.2019 23:40 23,4 C 16,0 C 68 % 1011,8 hPa 0,0 l/m 0,0 km/h (0 Bft) W-NW 292 0 min 10,1 C 16,0 C 0,0 km/h (0 Bft)
18.07.2019 23:30 23,4 C 16,2 C 67 % 1011,8 hPa 0,0 l/m 0,2 km/h (0 Bft) W 270 0 min 10,1 C 16,2 C 0,0 km/h (0 Bft)
18.07.2019 23:20 23,4 C 16,2 C 68 % 1011,7 hPa 0,0 l/m 0,2 km/h (0 Bft) SO 135 0 min 10,3 C 16,2 C 1,8 km/h (1 Bft)
18.07.2019 23:10 23,5 C 16,1 C 68 % 1011,7 hPa 0,0 l/m 0,0 km/h (0 Bft) O-SO 112 0 min 10,2 C 16,1 C 0,0 km/h (0 Bft)
18.07.2019 23:00 23,5 C 16,4 C 67 % 1011,7 hPa 0,0 l/m 0,0 km/h (0 Bft) O-SO 112 0 min 10,3 C 16,4 C 0,0 km/h (0 Bft)
18.07.2019 22:50 23,5 C 16,7 C 66 % 1011,7 hPa 0,0 l/m 0,0 km/h (0 Bft) O-SO 112 0 min 10,3 C 16,7 C 0,0 km/h (0 Bft)
18.07.2019 22:40 23,6 C 17,0 C 66 % 1011,6 hPa 0,0 l/m 0,0 km/h (0 Bft) W 270 0 min 10,6 C 17,0 C 0,0 km/h (0 Bft)
18.07.2019 22:30 23,6 C 17,2 C 66 % 1011,6 hPa 0,0 l/m 0,0 km/h (0 Bft) O-SO 112 0 min 10,8 C 17,2 C 0,0 km/h (0 Bft)
18.07.2019 22:20 23,6 C 17,2 C 65 % 1011,9 hPa 0,0 l/m 0,0 km/h (0 Bft) SO 135 0 min 10,6 C 17,2 C 0,0 km/h (0 Bft)
18.07.2019 22:10 23,6 C 17,1 C 64 % 1011,9 hPa 0,0 l/m 0,0 km/h (0 Bft) SO 135 0 min 10,2 C 17,1 C 0,0 km/h (0 Bft)
18.07.2019 22:00 23,6 C 17,2 C 63 % 1011,9 hPa 0,0 l/m 0,0 km/h (0 Bft) S-SO 157 0 min 10,1 C 17,2 C 0,0 km/h (0 Bft)
18.07.2019 21:50 23,7 C 17,5 C 62 % 1011,9 hPa 0,0 l/m 0,0 km/h (0 Bft) S-SO 157 0 min 10,1 C 17,5 C 0,0 km/h (0 Bft)
18.07.2019 21:40 23,7 C 17,8 C 61 % 1011,9 hPa 0,0 l/m 0,0 km/h (0 Bft) S-SO 157 0 min 10,2 C 17,8 C 0,0 km/h (0 Bft)
18.07.2019 21:30 23,7 C 18,2 C 59 % 1011,9 hPa 0,0 l/m 0,0 km/h (0 Bft) S-SO 157 0 min 10,1 C 18,2 C 0,0 km/h (0 Bft)
18.07.2019 21:20 23,8 C 18,5 C 59 % 1011,9 hPa 0,0 l/m 0,0 km/h (0 Bft) S-SO 157 0 min 10,3 C 18,5 C 0,0 km/h (0 Bft)
18.07.2019 21:10 23,8 C 19,1 C 58 % 1011,9 hPa 0,0 l/m 0,0 km/h (0 Bft) S-SO 157 0 min 10,6 C 19,1 C 0,0 km/h (0 Bft)
18.07.2019 21:00 23,8 C 19,6 C 56 % 1011,8 hPa 0,0 l/m 0,0 km/h (0 Bft) S-SO 157 0 min 10,6 C 19,6 C 0,0 km/h (0 Bft)
18.07.2019 20:50 23,9 C 20,0 C 55 % 1011,8 hPa 0,0 l/m 0,0 km/h (0 Bft) S-SO 157 10 min 10,7 C 20,0 C 0,0 km/h (0 Bft)
18.07.2019 20:40 24,0 C 20,6 C 54 % 1012,0 hPa 0,0 l/m 0,0 km/h (0 Bft) SO 135 10 min 11,0 C 20,6 C 0,0 km/h (0 Bft)
18.07.2019 20:30 24,0 C 21,2 C 52 % 1012,0 hPa 0,0 l/m 0,0 km/h (0 Bft) S 180 10 min 10,9 C 21,2 C 0,0 km/h (0 Bft)
18.07.2019 20:20 24,1 C 21,8 C 49 % 1011,8 hPa 0,0 l/m 0,0 km/h (0 Bft) S 180 10 min 10,6 C 21,8 C 0,0 km/h (0 Bft)
18.07.2019 20:10 24,1 C 22,4 C 47 % 1011,8 hPa 0,0 l/m 0,0 km/h (0 Bft) SO 135 10 min 10,5 C 22,4 C 0,0 km/h (0 Bft)
18.07.2019 20:00 24,1 C 23,2 C 44 % 1011,8 hPa 0,0 l/m 0,0 km/h (0 Bft) SO 135 10 min 10,3 C 23,2 C 0,0 km/h (0 Bft)
18.07.2019 19:50 24,2 C 24,5 C 39 % 1011,8 hPa 0,0 l/m 0,0 km/h (0 Bft) S 180 10 min 9,6 C 24,5 C 0,0 km/h (0 Bft)
18.07.2019 19:40 24,2 C 26,6 C 38 % 1011,9 hPa 0,0 l/m 0,2 km/h (0 Bft) W-SW 247 10 min 11,1 C 26,6 C 0,0 km/h (0 Bft)
18.07.2019 19:30 24,2 C 27,6 C 37 % 1011,9 hPa 0,0 l/m 0,0 km/h (0 Bft) SW 225 10 min 11,6 C 27,6 C 0,0 km/h (0 Bft)
18.07.2019 19:20 24,3 C 28,0 C 37 % 1011,7 hPa 0,0 l/m 0,2 km/h (0 Bft) W 270 10 min 11,9 C 28,0 C 0,0 km/h (0 Bft)
18.07.2019 19:10 24,3 C 26,8 C 37 % 1011,7 hPa 0,0 l/m 0,6 km/h (0 Bft) O-NO 67 10 min 10,9 C 26,8 C 0,0 km/h (0 Bft)
18.07.2019 19:00 24,2 C 24,9 C 37 % 1011,5 hPa 0,0 l/m 1,4 km/h (1 Bft) NW 315 10 min 9,2 C 24,9 C 0,0 km/h (0 Bft)
18.07.2019 18:50 24,4 C 25,0 C 36 % 1011,5 hPa 0,0 l/m 1,6 km/h (1 Bft) N-NW 337 10 min 8,9 C 25,0 C 2,7 km/h (1 Bft)
18.07.2019 18:40 24,4 C 24,8 C 39 % 1011,8 hPa 0,0 l/m 0,5 km/h (0 Bft) W 270 10 min 9,9 C 24,8 C 0,0 km/h (0 Bft)
18.07.2019 18:30 24,4 C 24,9 C 39 % 1011,8 hPa 0,0 l/m 0,6 km/h (0 Bft) S 180 10 min 10,0 C 24,9 C 0,0 km/h (0 Bft)
18.07.2019 18:20 24,4 C 24,8 C 38 % 1011,8 hPa 0,0 l/m 1,4 km/h (1 Bft) S-SO 157 10 min 9,5 C 24,8 C 0,0 km/h (0 Bft)
18.07.2019 18:10 24,4 C 24,9 C 38 % 1011,8 hPa 0,0 l/m 1,0 km/h (0 Bft) SW 225 10 min 9,6 C 24,9 C 0,0 km/h (0 Bft)
18.07.2019 18:00 24,4 C 24,5 C 38 % 1012,0 hPa 0,0 l/m 1,4 km/h (1 Bft) SO 135 10 min 9,2 C 24,5 C 2,9 km/h (1 Bft)
18.07.2019 17:50 24,4 C 24,1 C 39 % 1012,0 hPa 0,0 l/m 1,0 km/h (0 Bft) O 90 10 min 9,3 C 24,1 C 3,4 km/h (1 Bft)
18.07.2019 17:40 24,6 C 24,3 C 38 % 1012,3 hPa 0,0 l/m 0,2 km/h (0 Bft) S-SO 157 10 min 9,1 C 24,3 C 0,0 km/h (0 Bft)
18.07.2019 17:30 24,8 C 24,7 C 36 % 1012,3 hPa 0,0 l/m 1,1 km/h (1 Bft) NO 45 10 min 8,6 C 24,7 C 2,1 km/h (1 Bft)
18.07.2019 17:20 24,8 C 25,3 C 36 % 1012,5 hPa 0,0 l/m 1,9 km/h (1 Bft) O 90 10 min 9,1 C 25,3 C 2,1 km/h (1 Bft)
18.07.2019 17:10 24,8 C 25,1 C 37 % 1012,5 hPa 0,0 l/m 2,3 km/h (1 Bft) S-SO 157 10 min 9,4 C 25,1 C 6,4 km/h (2 Bft)
18.07.2019 17:00 24,8 C 25,2 C 37 % 1012,6 hPa 0,0 l/m 2,4 km/h (1 Bft) W 270 10 min 9,5 C 25,2 C 4,5 km/h (1 Bft)
18.07.2019 16:50 24,8 C 24,8 C 37 % 1012,6 hPa 0,0 l/m 1,3 km/h (1 Bft) S 180 10 min 9,1 C 24,8 C 3,9 km/h (1 Bft)
18.07.2019 16:40 24,8 C 25,4 C 35 % 1012,7 hPa 0,0 l/m 1,8 km/h (1 Bft) S-SO 157 10 min 8,8 C 25,4 C 2,3 km/h (1 Bft)
18.07.2019 16:30 24,8 C 25,1 C 35 % 1012,7 hPa 0,0 l/m 3,1 km/h (1 Bft) N-NW 337 10 min 8,6 C 25,1 C 3,4 km/h (1 Bft)
18.07.2019 16:20 24,6 C 25,2 C 36 % 1012,4 hPa 0,0 l/m 1,6 km/h (1 Bft) O-NO 67 10 min 9,1 C 25,2 C 2,3 km/h (1 Bft)
18.07.2019 16:10 24,5 C 25,1 C 35 % 1012,4 hPa 0,0 l/m 1,9 km/h (1 Bft) NO 45 10 min 8,6 C 25,1 C 3,2 km/h (1 Bft)
18.07.2019 16:00 24,4 C 24,9 C 35 % 1012,5 hPa 0,0 l/m 3,1 km/h (1 Bft) SW 225 10 min 8,4 C 24,9 C 0,0 km/h (0 Bft)
18.07.2019 15:50 24,2 C 25,1 C 36 % 1012,5 hPa 0,0 l/m 1,9 km/h (1 Bft) SO 135 10 min 9,0 C 25,1 C 7,6 km/h (2 Bft)
18.07.2019 15:40 24,2 C 24,8 C 37 % 1012,4 hPa 0,0 l/m 2,7 km/h (1 Bft) W-NW 292 10 min 9,1 C 24,8 C 3,9 km/h (1 Bft)
18.07.2019 15:30 24,1 C 24,9 C 39 % 1012,4 hPa 0,0 l/m 2,1 km/h (1 Bft) W 270 10 min 10,0 C 24,9 C 4,3 km/h (1 Bft)
18.07.2019 15:20 24,0 C 24,4 C 39 % 1012,4 hPa 0,0 l/m 2,7 km/h (1 Bft) S-SO 157 10 min 9,5 C 24,4 C 2,9 km/h (1 Bft)
18.07.2019 15:10 24,0 C 24,8 C 38 % 1012,4 hPa 0,0 l/m 3,2 km/h (1 Bft) S-SO 157 10 min 9,5 C 24,8 C 3,5 km/h (1 Bft)
18.07.2019 15:00 23,9 C 24,5 C 37 % 1012,6 hPa 0,0 l/m 2,9 km/h (1 Bft) S 180 10 min 8,8 C 24,5 C 3,5 km/h (1 Bft)
18.07.2019 14:50 24,0 C 24,9 C 40 % 1012,6 hPa 0,0 l/m 2,3 km/h (1 Bft) SW 225 10 min 10,4 C 24,9 C 1,6 km/h (1 Bft)
18.07.2019 14:40 23,9 C 24,9 C 39 % 1012,5 hPa 0,0 l/m 2,1 km/h (1 Bft) O 90 10 min 10,0 C 24,9 C 5,8 km/h (2 Bft)
18.07.2019 14:30 23,8 C 24,5 C 40 % 1012,5 hPa 0,0 l/m 2,1 km/h (1 Bft) SO 135 10 min 10,0 C 24,5 C 0,0 km/h (0 Bft)
18.07.2019 14:20 23,8 C 24,1 C 39 % 1012,7 hPa 0,0 l/m 1,4 km/h (1 Bft) S-SO 157 10 min 9,3 C 24,1 C 1,9 km/h (1 Bft)
18.07.2019 14:10 23,8 C 25,4 C 38 % 1012,7 hPa 0,0 l/m 2,7 km/h (1 Bft) W-SW 247 10 min 10,0 C 25,4 C 3,5 km/h (1 Bft)
18.07.2019 14:00 23,8 C 24,8 C 40 % 1012,8 hPa 0,0 l/m 2,3 km/h (1 Bft) S-SW 202 10 min 10,3 C 24,8 C 0,0 km/h (0 Bft)
18.07.2019 13:50 23,8 C 24,5 C 37 % 1012,8 hPa 0,0 l/m 2,6 km/h (1 Bft) SO 135 10 min 8,8 C 24,5 C 6,1 km/h (2 Bft)
18.07.2019 13:40 23,8 C 25,0 C 38 % 1012,8 hPa 0,0 l/m 3,7 km/h (1 Bft) W-SW 247 10 min 9,7 C 25,0 C 5,3 km/h (1 Bft)
18.07.2019 13:30 23,7 C 24,7 C 40 % 1012,8 hPa 0,0 l/m 3,2 km/h (1 Bft) S 180 10 min 10,2 C 24,7 C 3,1 km/h (1 Bft)
18.07.2019 13:20 23,6 C 24,2 C 38 % 1012,4 hPa 0,0 l/m 4,0 km/h (1 Bft) O-SO 112 10 min 9,0 C 24,2 C 11,7 km/h (2 Bft)
18.07.2019 13:10 23,5 C 24,3 C 37 % 1012,4 hPa 0,0 l/m 3,1 km/h (1 Bft) SO 135 10 min 8,7 C 24,3 C 6,8 km/h (2 Bft)
18.07.2019 13:00 23,4 C 24,3 C 39 % 1012,7 hPa 0,0 l/m 2,6 km/h (1 Bft) S 180 10 min 9,4 C 24,3 C 8,5 km/h (2 Bft)
18.07.2019 12:50 23,2 C 24,4 C 40 % 1012,7 hPa 0,0 l/m 2,6 km/h (1 Bft) S 180 10 min 9,9 C 24,4 C 3,9 km/h (1 Bft)
18.07.2019 12:40 23,2 C 24,2 C 39 % 1012,2 hPa 0,0 l/m 3,1 km/h (1 Bft) S 180 10 min 9,4 C 24,2 C 6,3 km/h (2 Bft)
18.07.2019 12:30 23,2 C 24,1 C 39 % 1012,2 hPa 0,0 l/m 2,7 km/h (1 Bft) O-SO 112 10 min 9,3 C 24,1 C 6,4 km/h (2 Bft)
18.07.2019 12:20 23,1 C 24,1 C 40 % 1012,4 hPa 0,0 l/m 1,9 km/h (1 Bft) S 180 10 min 9,6 C 24,1 C 0,0 km/h (0 Bft)
18.07.2019 12:10 23,0 C 23,7 C 40 % 1012,4 hPa 0,0 l/m 2,4 km/h (1 Bft) NW 315 10 min 9,3 C 23,7 C 2,7 km/h (1 Bft)
18.07.2019 12:00 23,0 C 23,8 C 40 % 1012,3 hPa 0,0 l/m 2,1 km/h (1 Bft) SO 135 10 min 9,4 C 23,8 C 7,6 km/h (2 Bft)
18.07.2019 11:50 22,8 C 23,8 C 41 % 1012,3 hPa 0,0 l/m 1,9 km/h (1 Bft) W-SW 247 10 min 9,7 C 23,8 C 2,3 km/h (1 Bft)
18.07.2019 11:40 22,8 C 23,2 C 40 % 1012,1 hPa 0,0 l/m 3,4 km/h (1 Bft) NO 45 10 min 8,8 C 23,2 C 7,4 km/h (2 Bft)
18.07.2019 11:30 22,7 C 23,1 C 45 % 1012,1 hPa 0,0 l/m 0,8 km/h (0 Bft) SO 135 10 min 10,5 C 23,1 C 3,2 km/h (1 Bft)
18.07.2019 11:20 22,7 C 22,6 C 45 % 1012,4 hPa 0,0 l/m 1,8 km/h (1 Bft) NW 315 10 min 10,1 C 22,6 C 0,0 km/h (0 Bft)
18.07.2019 11:10 22,6 C 22,6 C 44 % 1012,4 hPa 0,0 l/m 2,7 km/h (1 Bft) O 90 10 min 9,7 C 22,6 C 2,9 km/h (1 Bft)
18.07.2019 11:00 22,6 C 22,6 C 46 % 1012,0 hPa 0,0 l/m 1,0 km/h (0 Bft) O-NO 67 10 min 10,4 C 22,6 C 2,6 km/h (1 Bft)
18.07.2019 10:50 22,5 C 22,3 C 44 % 1012,0 hPa 0,0 l/m 1,1 km/h (1 Bft) S 180 10 min 9,5 C 22,3 C 1,8 km/h (1 Bft)
18.07.2019 10:40 22,5 C 22,4 C 46 % 1012,3 hPa 0,0 l/m 1,9 km/h (1 Bft) N-NO 22 10 min 10,2 C 22,4 C 1,9 km/h (1 Bft)
18.07.2019 10:30 22,4 C 22,3 C 48 % 1012,3 hPa 0,0 l/m 1,1 km/h (1 Bft) O 90 10 min 10,8 C 22,3 C 3,2 km/h (1 Bft)
18.07.2019 10:20 22,4 C 22,1 C 49 % 1011,9 hPa 0,0 l/m 1,1 km/h (1 Bft) O-NO 67 10 min 10,9 C 22,1 C 2,4 km/h (1 Bft)
18.07.2019 10:10 22,4 C 21,8 C 48 % 1011,9 hPa 0,0 l/m 1,0 km/h (0 Bft) O-NO 67 10 min 10,3 C 21,8 C 3,5 km/h (1 Bft)
18.07.2019 10:00 22,2 C 21,8 C 52 % 1012,0 hPa 0,0 l/m 1,4 km/h (1 Bft) W 270 10 min 11,5 C 21,8 C 1,8 km/h (1 Bft)
18.07.2019 09:50 22,3 C 21,7 C 53 % 1012,0 hPa 0,0 l/m 1,6 km/h (1 Bft) S 180 10 min 11,7 C 21,7 C 0,0 km/h (0 Bft)
18.07.2019 09:40 22,2 C 21,6 C 54 % 1011,9 hPa 0,0 l/m 2,6 km/h (1 Bft) SO 135 10 min 11,9 C 21,6 C 0,0 km/h (0 Bft)
18.07.2019 09:30 22,2 C 21,4 C 54 % 1011,9 hPa 0,0 l/m 2,6 km/h (1 Bft) SO 135 10 min 11,7 C 21,4 C 6,3 km/h (2 Bft)
18.07.2019 09:20 22,1 C 21,1 C 56 % 1011,5 hPa 0,0 l/m 2,3 km/h (1 Bft) S-SO 157 10 min 12,0 C 21,1 C 2,6 km/h (1 Bft)
18.07.2019 09:10 22,1 C 21,2 C 56 % 1011,5 hPa 0,0 l/m 3,2 km/h (1 Bft) SO 135 10 min 12,1 C 21,2 C 6,9 km/h (2 Bft)
18.07.2019 09:00 22,0 C 21,1 C 57 % 1011,6 hPa 0,0 l/m 2,3 km/h (1 Bft) SO 135 10 min 12,2 C 21,1 C 5,3 km/h (1 Bft)
18.07.2019 08:50 22,0 C 21,9 C 56 % 1011,6 hPa 0,0 l/m 1,9 km/h (1 Bft) O-NO 67 10 min 12,7 C 21,9 C 2,6 km/h (1 Bft)
18.07.2019 08:40 22,0 C 20,3 C 61 % 1011,6 hPa 0,0 l/m 0,6 km/h (0 Bft) S-SO 157 10 min 12,5 C 20,3 C 4,7 km/h (1 Bft)
18.07.2019 08:30 21,9 C 19,3 C 66 % 1011,6 hPa 0,0 l/m 0,5 km/h (0 Bft) S 180 10 min 12,8 C 19,3 C 0,0 km/h (0 Bft)
18.07.2019 08:20 21,8 C 19,0 C 68 % 1011,3 hPa 0,0 l/m 0,0 km/h (0 Bft) O 90 10 min 13,0 C 19,0 C 0,0 km/h (0 Bft)
18.07.2019 08:10 21,8 C 17,9 C 73 % 1011,3 hPa 0,0 l/m 0,2 km/h (0 Bft) SO 135 10 min 13,0 C 17,9 C 0,0 km/h (0 Bft)
18.07.2019 08:00 21,6 C 16,6 C 75 % 1011,1 hPa 0,0 l/m 0,2 km/h (0 Bft) O-NO 67 10 min 12,1 C 16,6 C 0,0 km/h (0 Bft)
18.07.2019 07:50 21,5 C 15,1 C 79 % 1011,1 hPa 0,0 l/m 0,0 km/h (0 Bft) O-NO 67 10 min 11,5 C 15,1 C 0,0 km/h (0 Bft)
18.07.2019 07:40 21,5 C 14,4 C 81 % 1011,1 hPa 0,0 l/m 0,5 km/h (0 Bft) S-SO 157 10 min 11,2 C 14,4 C 0,0 km/h (0 Bft)
18.07.2019 07:30 21,6 C 14,1 C 82 % 1011,1 hPa 0,0 l/m 1,1 km/h (1 Bft) O-SO 112 11 min 11,1 C 14,1 C 3,1 km/h (1 Bft)
18.07.2019 07:19 21,8 C 13,4 C 83 % 1011,6 hPa 0,0 l/m 0,6 km/h (0 Bft) O-NO 67 9 min 10,6 C 13,4 C 2,6 km/h (1 Bft)
18.07.2019 07:10 22,0 C 12,8 C 84 % 1011,6 hPa 0,0 l/m 0,2 km/h (0 Bft) O 90 10 min 10,2 C 12,8 C 0,0 km/h (0 Bft)
18.07.2019 07:00 22,2 C 12,3 C 84 % 1011,6 hPa 0,0 l/m 0,0 km/h (0 Bft) SO 135 10 min 9,7 C 12,3 C 0,0 km/h (0 Bft)
18.07.2019 06:50 22,2 C 11,7 C 84 % 1011,6 hPa 0,0 l/m 0,0 km/h (0 Bft) SO 135 0 min 9,1 C 11,7 C 0,0 km/h (0 Bft)
18.07.2019 06:40 22,2 C 11,2 C 84 % 1011,6 hPa 0,0 l/m 0,0 km/h (0 Bft) W 270 0 min 8,6 C 11,2 C 0,0 km/h (0 Bft)
18.07.2019 06:30 22,2 C 10,8 C 84 % 1011,6 hPa 0,0 l/m 0,0 km/h (0 Bft) NW 315 0 min 8,2 C 10,8 C 0,0 km/h (0 Bft)
18.07.2019 06:20 22,2 C 10,6 C 84 % 1011,8 hPa 0,0 l/m 0,0 km/h (0 Bft) NW 315 0 min 8,0 C 10,6 C 0,0 km/h (0 Bft)
18.07.2019 06:10 22,3 C 10,5 C 84 % 1011,8 hPa 0,0 l/m 0,0 km/h (0 Bft) NW 315 0 min 7,9 C 10,5 C 0,0 km/h (0 Bft)
18.07.2019 06:00 22,3 C 10,4 C 84 % 1011,8 hPa 0,0 l/m 0,0 km/h (0 Bft) NW 315 0 min 7,8 C 10,4 C 0,0 km/h (0 Bft)
18.07.2019 05:50 22,3 C 10,4 C 84 % 1011,8 hPa 0,0 l/m 0,0 km/h (0 Bft) N 360 0 min 7,8 C 10,4 C 0,0 km/h (0 Bft)
18.07.2019 05:40 22,2 C 10,1 C 84 % 1011,6 hPa 0,0 l/m 0,0 km/h (0 Bft) O-SO 112 0 min 7,5 C 10,1 C 0,0 km/h (0 Bft)
18.07.2019 05:30 22,2 C 10,1 C 84 % 1011,6 hPa 0,0 l/m 0,0 km/h (0 Bft) N-NO 22 0 min 7,5 C 10,1 C 0,0 km/h (0 Bft)
18.07.2019 05:20 22,4 C 9,9 C 85 % 1011,8 hPa 0,0 l/m 0,0 km/h (0 Bft) S-SW 202 0 min 7,5 C 9,9 C 0,0 km/h (0 Bft)
18.07.2019 05:10 22,4 C 10,2 C 84 % 1011,8 hPa 0,0 l/m 0,0 km/h (0 Bft) W-SW 247 0 min 7,6 C 10,2 C 0,0 km/h (0 Bft)
18.07.2019 05:00 22,4 C 10,4 C 84 % 1011,5 hPa 0,0 l/m 0,0 km/h (0 Bft) NO 45 0 min 7,8 C 10,4 C 0,0 km/h (0 Bft)
18.07.2019 04:50 22,4 C 10,3 C 84 % 1011,5 hPa 0,0 l/m 0,0 km/h (0 Bft) O-NO 67 0 min 7,7 C 10,3 C 0,0 km/h (0 Bft)
18.07.2019 04:40 22,4 C 10,5 C 84 % 1011,6 hPa 0,0 l/m 0,2 km/h (0 Bft) O-NO 67 0 min 7,9 C 10,5 C 2,4 km/h (1 Bft)
18.07.2019 04:30 22,4 C 10,5 C 84 % 1011,6 hPa 0,0 l/m 0,0 km/h (0 Bft) O-NO 67 0 min 7,9 C 10,5 C 0,0 km/h (0 Bft)
18.07.2019 04:20 22,4 C 10,5 C 84 % 1011,6 hPa 0,0 l/m 0,0 km/h (0 Bft) O 90 0 min 7,9 C 10,5 C 0,0 km/h (0 Bft)
18.07.2019 04:10 22,4 C 10,4 C 83 % 1011,6 hPa 0,0 l/m 0,0 km/h (0 Bft) O 90 0 min 7,6 C 10,4 C 0,0 km/h (0 Bft)
18.07.2019 04:00 22,4 C 10,4 C 83 % 1011,7 hPa 0,0 l/m 0,0 km/h (0 Bft) O-SO 112 0 min 7,6 C 10,4 C 0,0 km/h (0 Bft)
_ Min-Zeit 07:40 05:20 16:00 07:30 - 04:00 - - - 05:20 05:20 04:00
Minimum _ 21,5 C 9,9 C 35 % 1011,1 hPa - 0,0 km/h (0 Bft) - - - 7,5 C 9,9 C 0,0 km/h (0 Bft)
_ Max-Zeit 16:30 19:20 05:20 13:30 04:00 13:20 - - 07:30 08:10 19:20 13:20
Maximum _ 24,8 C 28,0 C 85 % 1012,8 hPa 0,0 l/m 4,0 km/h
O-SO (1 Bft)
- - 11 min 13,0 C 28,0 C 11,7 km/h
O-SO (2 Bft)
Durchschnitt _ 23,2 C 18,9 C 59 % 1011,9 hPa #0,0 l/m 1,0 km/h (0 Bft) SO - #0 min. 9,8 C 18,9 C 1,7 km/h (1 Bft)

©2019 Markus Bahr